Omaha Offutt, NE

10:06 AM CDT on September 24, 2017 (GMT -0500)
Offutt Air Force Base

Weather History for KOFF - September, 2014

Change the Weather History Date:

Thursday, September 11, 2014

  Actual Average Record
Temperature  
Mean Temperature 53 °F -  
Max Temperature 56 °F 77 °F 94 °F (2012)
Min Temperature 51 °F 57 °F 47 °F (2007)
Degree Days  
Heating Degree Days 12    
Growing Degree Days 3 (Base 50)    
Moisture  
Dew Point 52 °F    
Average Humidity 94    
Maximum Humidity 100    
Minimum Humidity 87    
Precipitation  
Precipitation 0.08 in - - ()
Sea Level Pressure  
Sea Level Pressure 30.24 in    
Wind  
Wind Speed 8 mph (North)    
Max Wind Speed 12 mph    
Max Gust Speed -    
Visibility 10 miles    
Events Rain    
Averages and records for this station are not official NWS values.
T = Trace of Precipitation, MM = Missing Value Source: NWS Daily Summary

Daily Weather History Graph

Daily Weather History Graph

Search for Another Location

Airport or City:

Trip Planner

Search our weather history database for the weather conditions in past years. The results will help you decide how hot, cold, wet, or windy it might be!

Date:

Astronomy

Sep. 11, 2014 Rise Set
Actual Time 7:00 AM CDT 7:39 PM CDT
Civil Twilight 6:32 AM CDT 8:07 PM CDT
Nautical Twilight 5:59 AM CDT 8:40 PM CDT
Astronomical Twilight 5:25 AM CDT 9:13 PM CDT
Moon 9:16 PM CDT (9/11) 10:00 AM CDT (9/11)
Length of Visible Light 13h 34m
Length of Day
12h 39m
Waning Gibbous, 90% of the Moon is Illuminated
Sep 11
Waning Gibbous
Sep 15
Last Quarter
Sep 24
New
Oct 1
First Quarter
Oct 8
Full

Hourly Weather History & Observations

Time (CDT) Temp. Dew Point Humidity Pressure Visibility Wind Dir Wind Speed Gust Speed Precip Events Conditions
12:23 AM 55.4 °F 53.6 °F 94% 30.10 in 10.0 mi North 8.1 mph - N/A   Overcast
12:28 AM 53.6 °F 53.6 °F 100% 30.10 in 10.0 mi North 10.4 mph - N/A   Light Drizzle
12:35 AM 53.6 °F 53.6 °F 100% 30.10 in 10.0 mi North 8.1 mph - N/A   Overcast
12:58 AM 54.1 °F 54.0 °F 99% 30.12 in 10.0 mi North 9.2 mph - 0.00 in   Overcast
1:29 AM 53.6 °F 53.6 °F 100% 30.12 in 10.0 mi North 8.1 mph - N/A   Overcast
1:53 AM 53.6 °F 53.6 °F 100% 30.12 in 10.0 mi North 8.1 mph - N/A   Overcast
1:58 AM 54.0 °F 53.1 °F 97% 30.14 in 10.0 mi North 8.1 mph - N/A   Overcast
2:58 AM 53.6 °F 53.2 °F 99% 30.13 in 10.0 mi North 8.1 mph - N/A   Overcast
3:15 AM 53.6 °F 53.6 °F 100% 30.13 in 10.0 mi NNW 6.9 mph - N/A   Overcast
3:22 AM 53.6 °F 53.6 °F 100% 30.13 in 10.0 mi NNW 6.9 mph - N/A   Overcast
3:28 AM 53.6 °F 53.6 °F 100% 30.13 in 10.0 mi North 9.2 mph - N/A   Overcast
3:58 AM 52.7 °F 52.5 °F 99% 30.15 in 10.0 mi NNW 11.5 mph - N/A   Overcast
3:59 AM 51.8 °F 51.8 °F 100% 30.14 in 10.0 mi NNW 10.4 mph - N/A   Overcast
4:57 AM 53.6 °F 51.8 °F 94% 30.16 in 10.0 mi Variable 5.8 mph - N/A   Overcast
4:58 AM 53.6 °F 51.8 °F 94% 30.17 in 10.0 mi Variable 6.9 mph - N/A   Overcast
5:05 AM 53.6 °F 51.8 °F 94% 30.16 in 10.0 mi North 5.8 mph - N/A   Overcast
5:58 AM 52.7 °F 51.6 °F 96% 30.18 in 10.0 mi NNE 9.2 mph - N/A   Overcast
6:58 AM 52.9 °F 51.6 °F 95% 30.22 in 10.0 mi NNW 6.9 mph - N/A   Overcast
7:42 AM 53.6 °F 51.8 °F 94% 30.22 in 10.0 mi North 5.8 mph - N/A   Overcast
7:49 AM 53.6 °F 51.8 °F 94% 30.23 in 10.0 mi North 8.1 mph - N/A   Mostly Cloudy
7:58 AM 53.4 °F 52.2 °F 95% 30.25 in 10.0 mi North 8.1 mph - N/A   Overcast
8:25 AM 53.6 °F 51.8 °F 94% 30.22 in 10.0 mi NE 9.2 mph - N/A   Overcast
8:38 AM 53.6 °F 51.8 °F 94% 30.21 in 10.0 mi NE 10.4 mph - N/A   Mostly Cloudy
8:41 AM 53.6 °F 51.8 °F 94% 30.21 in 10.0 mi NNE 8.1 mph - N/A   Scattered Clouds
8:58 AM 53.2 °F 50.9 °F 92% 30.24 in 10.0 mi North 8.1 mph - N/A   Partly Cloudy
9:35 AM 53.6 °F 51.8 °F 94% 30.24 in 10.0 mi North 6.9 mph - N/A   Overcast
9:58 AM 54.0 °F 51.3 °F 91% 30.25 in 10.0 mi North 8.1 mph - N/A   Mostly Cloudy
10:04 AM 53.6 °F 51.8 °F 94% 30.24 in 10.0 mi North 5.8 mph - N/A   Overcast
10:34 AM 55.4 °F 51.8 °F 88% 30.25 in 10.0 mi North 9.2 mph - N/A   Overcast
10:41 AM 55.4 °F 51.8 °F 88% 30.24 in 10.0 mi NNE 9.2 mph - N/A   Overcast
10:49 AM 53.6 °F 51.8 °F 94% 30.25 in 10.0 mi NNE 6.9 mph - N/A   Overcast
10:58 AM 54.1 °F 51.4 °F 91% 30.27 in 10.0 mi NNE 10.4 mph - N/A   Overcast
11:11 AM 55.4 °F 51.8 °F 88% 30.26 in 10.0 mi NE 8.1 mph - N/A   Mostly Cloudy
11:12 AM 55.4 °F 51.8 °F 88% 30.26 in 10.0 mi Variable 6.9 mph - N/A   Mostly Cloudy
11:36 AM 55.4 °F 51.8 °F 88% 30.26 in 10.0 mi North 11.5 mph - N/A   Mostly Cloudy
11:40 AM 55.4 °F 51.8 °F 88% 30.25 in 10.0 mi NNE 10.4 mph - N/A   Mostly Cloudy
11:58 AM 55.4 °F 51.6 °F 87% 30.28 in 10.0 mi North 8.1 mph - N/A   Mostly Cloudy
12:48 PM 55.4 °F 51.8 °F 88% 30.26 in 10.0 mi NNE 8.1 mph - N/A   Overcast
12:58 PM 54.7 °F 51.8 °F 90% 30.28 in 10.0 mi NNE 5.8 mph - N/A   Overcast
1:08 PM 55.4 °F 51.8 °F 88% 30.26 in 10.0 mi NE 6.9 mph - N/A   Overcast
1:58 PM 55.4 °F 51.4 °F 87% 30.29 in 10.0 mi North 4.6 mph - N/A   Overcast
2:06 PM 55.4 °F 51.8 °F 88% 30.26 in 10.0 mi North 8.1 mph - N/A   Overcast
2:10 PM 55.4 °F 51.8 °F 88% 30.26 in 10.0 mi North 6.9 mph - N/A   Overcast
2:43 PM 55.4 °F 51.8 °F 88% 30.27 in 10.0 mi NE 8.1 mph - N/A   Light Drizzle
2:54 PM 55.4 °F 51.8 °F 88% 30.26 in 10.0 mi NE 8.1 mph - N/A   Overcast
2:58 PM 54.9 °F 52.3 °F 91% 30.29 in 10.0 mi NNE 6.9 mph - 0.00 in   Overcast
3:08 PM 53.6 °F 51.8 °F 94% 30.27 in 10.0 mi NE 5.8 mph - N/A Rain Light Rain
3:32 PM 53.6 °F 53.6 °F 100% 30.26 in 7.0 mi NNE 5.8 mph - N/A Rain Light Rain
3:39 PM 53.6 °F 53.6 °F 100% 30.26 in 7.0 mi North 5.8 mph - N/A Rain Light Rain
3:44 PM 53.6 °F 53.6 °F 100% 30.26 in 6.0 mi North 4.6 mph - N/A Rain Rain
3:58 PM 53.4 °F 53.2 °F 99% 30.29 in 7.0 mi North 8.1 mph - 0.04 in Rain Rain
4:06 PM 53.6 °F 53.6 °F 100% 30.27 in 10.0 mi North 4.6 mph - N/A Rain Light Rain
4:23 PM 53.6 °F 53.6 °F 100% 30.26 in 10.0 mi North 8.1 mph - N/A   Overcast
4:33 PM 53.6 °F 53.6 °F 100% 30.27 in 10.0 mi NNE 10.4 mph - N/A   Light Drizzle
4:37 PM 53.6 °F 51.8 °F 94% 30.27 in 10.0 mi NNE 9.2 mph - N/A Rain Light Rain
4:43 PM 51.8 °F 51.8 °F 100% 30.26 in 10.0 mi NNE 11.5 mph - N/A Rain Light Rain
4:44 PM 51.8 °F 51.8 °F 100% 30.26 in 10.0 mi NNE 9.2 mph - N/A Rain Light Rain
4:58 PM 52.2 °F 52.0 °F 99% 30.29 in 10.0 mi North 6.9 mph - 0.01 in Rain Light Rain
5:06 PM 51.8 °F 51.8 °F 100% 30.26 in 10.0 mi NNE 4.6 mph - N/A   Overcast
5:30 PM 53.6 °F 53.6 °F 100% 30.27 in 10.0 mi Variable 5.8 mph - N/A   Mostly Cloudy
5:51 PM 53.6 °F 51.8 °F 94% 30.27 in 10.0 mi NNE 8.1 mph - N/A   Overcast
5:58 PM 53.6 °F 52.7 °F 97% 30.29 in 10.0 mi NNE 6.9 mph - 0.00 in   Overcast
6:00 PM 53.6 °F 51.8 °F 94% 30.27 in 10.0 mi NNE 5.8 mph - N/A   Overcast
6:27 PM 53.6 °F 51.8 °F 94% 30.28 in 10.0 mi Variable 6.9 mph - N/A   Overcast
6:58 PM 53.1 °F 50.5 °F 91% 30.29 in 10.0 mi NNE 4.6 mph - N/A   Mostly Cloudy
7:19 PM 53.6 °F 50.0 °F 88% 30.27 in 10.0 mi NNE 4.6 mph - N/A   Light Drizzle
7:21 PM 53.6 °F 50.0 °F 88% 30.27 in 10.0 mi North 4.6 mph - N/A   Light Drizzle
7:33 PM 53.6 °F 50.0 °F 88% 30.28 in 10.0 mi NNW 3.5 mph - N/A   Mostly Cloudy
7:58 PM 52.7 °F 50.9 °F 94% 30.30 in 10.0 mi NNW 5.8 mph - 0.00 in   Overcast
8:09 PM 53.6 °F 50.0 °F 88% 30.28 in 10.0 mi North 8.1 mph - N/A Rain Light Rain
8:16 PM 51.8 °F 50.0 °F 94% 30.28 in 10.0 mi North 9.2 mph - N/A   Light Drizzle
8:19 PM 51.8 °F 50.0 °F 94% 30.28 in 10.0 mi North 8.1 mph - N/A   Overcast
8:23 PM 53.6 °F 50.0 °F 88% 30.28 in 10.0 mi North 8.1 mph - N/A Rain Light Rain
8:41 PM 51.8 °F 50.0 °F 94% 30.29 in 10.0 mi North 8.1 mph - N/A   Mostly Cloudy
8:46 PM 51.8 °F 48.2 °F 88% 30.30 in 10.0 mi North 11.5 mph - N/A Rain Light Rain
8:58 PM 52.5 °F 48.7 °F 87% 30.30 in 10.0 mi NE 9.2 mph - 0.00 in Rain Light Rain
9:58 PM 51.3 °F 50.9 °F 99% 30.35 in 10.0 mi NNW 4.6 mph - 0.03 in Rain Light Rain
10:08 PM 51.8 °F 50.0 °F 94% 30.33 in 10.0 mi North 3.5 mph - N/A   Overcast
10:58 PM 51.4 °F 50.9 °F 98% 30.35 in 10.0 mi North 3.5 mph - 0.00 in   Overcast
11:58 PM 51.4 °F 50.4 °F 96% 30.35 in 10.0 mi NNE 6.9 mph - N/A   Overcast